Aeroporto :
LOGIN :

Iscrizione | Disclaimer

   EN    FR    IT 

 










Sommario :    VFR   VFR Marginale   IFR   IFR Intensivo   IFR Molto Intensivo
Visibilità : 
Base nubi : 
>= 8 km
>= 3000ft
5 / 8 km
1000 / 3000 ft
1500m / 5 km
500 / 1000 ft
800 / 1500m
200 / 500 ft
< 800m
< 200 ft
Simboli :   Temporali  Nebbia  Neve Forte  Precipitazioni Forti  Vento > 20 kt
SIGMETs :   Varie  Temporali  Ghiacco  Turbolenza  Onda orograficha  Ceneri Vulcaniche







- Altitudine del aeroporto : 12 ft
- Codice IATA : NCE
- Carte del aeroporto


LFMN - Nice

ULTIMO METAR :
  • 220300Z 33005KT 9999 SCT045 14/13 Q1013 NOSIG

METARs OBSOLETI :
  • 220230Z 34004KT 320V030 9999 SCT045 15/13 Q1013 NOSIG
  • 220200Z 32005KT 9999 FEW013 SCT048 15/13 Q1013 NOSIG
  • 220130Z 32004KT 9999 FEW013 SCT044 15/13 Q1013 NOSIG
  • 220100Z 32004KT 290V350 9999 FEW013 SCT044 16/13 Q1013 NOSIG
  • 220030Z 10006KT 9999 SCT016 SCT044 BKN110 16/14 Q1013 NOSIG

TAF TAF LFMN
Valido dal 22 a 03 ore il 23 a 09 ore UTC


220200Z 2203/2309 VRB03KT 9999 BKN044
BECMG 2209/2211 09015KT
TEMPO 2218/2309 BKN014
ATIS : +33 4 93 17 21 16
Nessun NOTAM noto per questo aeroporto.



MetMap, La meteo Aeronautica in un colpo d'occhio ! - Copyright ORBIFLY Dicembre 2007 - Disclaimer

ORBIFLY MET'MAP TEAM :

Programmazione e sviluppo : Alexandra Zaïnal
Concezione e sviluppo : Baudouin d'Aumeries
Co-Programmazione e sviluppo : Marc-Olivier Méhu
Supporto tecnico e logistico : Manuel Goepfert
Aiuto per la traduzione : Arnaldo La Scala

Contatto : metmap@orbifly.com




FONTI E CREDITI :

   NOAA